1313798434493,43.7861
1313798494493,43.7741
1313798554493,43.7002
1313798614493,43.6860
1313798674493,43.8137
1313798734493,43.7465
1313798794493,43.7516
1313798854493,43.6747
1313798914493,43.6927
1313798974493,43.7876
1313799034493,43.8006
1313799094493,43.8149
1313799154493,43.8693
1313799214493,43.8492
1313799274493,43.8932
1313799334493,43.8357
1313799394493,43.6693
1313799454493,43.7726
1313799514493,43.8306
1313799574493,43.8248
1313799634493,43.7730
1313799694493,43.9146
1313799754493,43.6824
1313799814493,43.8824
1313799874493,43.7055
1313799934493,43.8020
1313799994493,43.7942
1313800054493,43.8954
1313800114493,43.9528
1313800174493,43.8734
1313800234493,43.8818
1313800294493,43.7539
1313800354493,43.7759
1313800414493,43.7703
1313800474493,44.0589
1313800534493,43.8312
1313800594493,43.8353
1313800654493,44.0485
1313800714493,43.9126
1313800774493,43.9146
1313800834493,43.7603
1313800894493,43.7707
1313800954493,43.8572
1313801014493,43.9918
1313801074493,43.8485
1313801134493,44.0151
1313801194493,43.8430
1313801254493,43.8841
1313801314493,43.9356
1313801374493,43.8677
1313801434493,43.9025
1313801494493,43.9221
1313801554493,43.9793
1313801614493,43.8367
1313801674493,43.8557
1313801734493,43.8994
1313801794493,43.8379
1313801854493,44.0774
1313801914493,43.8100
1313801974493,43.9039
1313802034502,43.9004
1313802094502,43.9060
1313802154502,43.9194
1313802214502,43.8783
1313802274502,43.9459
1313802334502,43.7469
1313802394502,43.9189
1313802454502,43.8561
1313802514502,43.8813
1313802574502,43.8882
1313802634502,43.9881
1313802694502,43.7911
1313802754502,43.8907
1313802814502,43.8870
1313802874502,43.9858
1313802934502,43.9203
1313802994502,43.9399
1313803054502,43.9019
1313803114502,43.9520
1313803174502,43.8368
1313803234502,43.8411
1313803294502,44.0086
1313803354502,43.7616
1313803414502,43.8119
1313803474502,43.9282
1313803534502,43.8267
1313803594502,43.9418
1313803654502,43.8919
1313803714502,43.9382
1313803774502,43.8861
1313803834502,43.9627
1313803894502,43.9538
1313803954502,43.8282
1313804014502,43.7759
1313804074502,43.9186
1313804134502,43.9513
1313804194502,43.9784
1313804254502,43.9456
1313804314502,43.8522
1313804374502,43.9405
1313804434502,43.8957
1313804494502,43.9681
1313804554502,43.9473
1313804614502,43.9336
1313804674502,44.1164
1313804734502,43.9122
1313804794502,44.0710
1313804854502,43.8347
1313804914502,44.0506
1313804974502,43.9031
1313805034502,43.8963
1313805094502,43.9303
1313805154502,43.9077
1313805214502,43.8400
1313805274502,43.9283
1313805334502,43.9373
1313805394502,44.0320
1313805454502,43.8543
1313805514502,43.9877
1313805574502,43.7882
1313805634512,43.8530
1313805694512,43.9300
1313805754512,43.9172
1313805814512,43.8826
1313805874512,43.9887
1313805934512,43.8953
1313805994512,44.0823
1313806054512,43.8876
1313806114512,43.7856
1313806174512,43.9985
1313806234512,43.8671
1313806294512,43.8233
1313806354512,43.8157
1313806414512,43.8662
1313806474512,43.8393
1313806534512,43.7655
1313806594512,43.8810
1313806654512,43.7690
1313806714512,43.9447
1313806774512,43.8546
1313806834512,43.9936
1313806894512,43.9881
1313806954512,43.9121
1313807014512,43.9375
1313807074512,43.9079
1313807134512,44.0594
1313807194512,43.8052
1313807254512,43.8917
1313807314512,44.0402
1313807374512,43.9952
1313807434512,43.8868
1313807494512,43.9270
1313807554512,44.0402
1313807614512,44.0522
1313807674512,43.9898
1313807734512,43.9441
1313807794512,43.8992
1313807854512,44.0339
1313807914512,44.1142
1313807974512,44.0521
1313808034512,43.9660
1313808094512,44.0036
1313808154512,43.9086
1313808214512,44.0744
1313808274512,43.9945
1313808334512,44.0876
1313808394512,43.9176
1313808454512,43.9818
1313808514512,44.0345
1313808574512,44.0016
1313808634512,44.0077
1313808694512,43.9166
1313808754512,44.0405
1313808814512,43.9429
1313808874512,44.1199
1313808934512,43.8990
1313808994512,44.0882
1313809054512,43.9784
1313809114512,44.1269
1313809174512,43.9990
1313809234521,44.0348
1313809294521,44.1030
1313809354521,44.0037
1313809414521,44.0288
1313809474521,44.0603
1313809534521,44.0148
1313809594521,44.1612
1313809654521,44.0805
1313809714521,43.9862
1313809774521,44.0764
1313809834521,44.0414
1313809894521,44.0694
1313809954521,44.1085
1313810014521,44.0201
1313810074521,43.9187
1313810134521,44.0426
1313810194521,44.0261
1313810254521,44.0902
1313810314521,44.0400
1313810374521,44.0810
1313810434521,44.0035
1313810494521,44.0301
1313810554521,44.0022
1313810614521,44.1442
1313810674521,44.1910
1313810734521,44.1242
1313810794521,44.1773
1313810854521,44.0557
1313810914521,44.2222
1313810974521,43.9882
1313811034521,43.9959
1313811094521,44.1175
1313811154521,44.0668
1313811214521,44.0345
1313811274521,44.1140
1313811334521,44.0404
1313811394521,44.0859
1313811454521,44.0355
1313811514521,44.2898
1313811574521,44.1215
1313811634521,44.2223
1313811694521,44.0531
1313811754521,44.1839
1313811814521,44.0037
1313811874521,44.1250
1313811934521,44.2148
1313811994521,44.2323
1313812054521,44.2205
1313812114521,44.2387
1313812174521,44.2378
1313812234521,44.0485
1313812294521,44.0664
1313812354521,44.1509
1313812414521,44.2638
1313812474521,44.2757
1313812534521,44.1445
1313812594521,44.1463
1313812654521,44.1726
1313812714521,44.2948
1313812774521,44.1698
1313812834530,44.2338
1313812894530,44.1915
1313812954530,45.4982
1313813014530,44.3171
1313813074530,44.2655
1313813134530,44.2618
1313813194530,44.1915
1313813254530,44.2744
1313813314530,44.3254
1313813374530,44.3479
1313813434530,44.2800
1313813494530,44.2641
1313813554530,44.3007
1313813614530,44.2293
1313813674530,44.1912
1313813734530,44.3345
1313813794530,44.2107
1313813854530,44.2464
1313813914530,44.3572
1313813974530,44.2569
1313814034530,44.3093
1313814094530,44.4171
1313814154530,44.2430
1313814214530,44.2327
1313814274530,44.2561
1313814334530,44.3478
1313814394530,44.1546
1313814454530,44.3461
1313814514530,44.3873
1313814574530,44.4667
1313814634530,44.3299
1313814694530,44.4594
1313814754530,44.4115
1313814814530,44.4093
1313814874530,44.2701
1313814934530,44.3457
1313814994530,44.3808
1313815054530,44.3715
1313815114530,44.2733
1313815174530,44.2702
1313815234530,44.3783
1313815294530,44.3376
1313815354530,44.4273
1313815414530,44.4044
1313815474530,44.3429
1313815534530,44.4280
1313815594530,44.3070
1313815654530,44.2656
1313815714530,44.3451
1313815774530,44.5044
1313815834530,44.3722
1313815894530,44.5607
1313815954530,44.4938
1313816014530,44.4876
1313816074530,44.5066
1313816134530,44.5826
1313816194530,44.6122
1313816254530,44.5210
1313816314530,44.4426
1313816374530,44.5762
1313816434540,44.5471
1313816494540,44.6059
1313816554540,44.6424
1313816614540,44.6479
1313816674540,44.6109
1313816734540,44.6024
1313816794540,44.7554
1313816854540,44.6592
1313816914540,44.6918
1313816974540,44.5646
1313817034540,44.6340
1313817094540,44.6441
1313817154540,44.5062
1313817214540,44.6531
1313817274540,44.7324
1313817334540,44.6985
1313817394540,44.6195
1313817454540,44.7627
1313817514540,44.6653
1313817574540,44.7632
1313817634540,44.9048
1313817694540,44.7578
1313817754540,44.6888
1313817814540,44.7921
1313817874540,44.8419
1313817934540,44.6537
1313817994540,44.6143
1313818054540,44.7943
1313818114540,44.7550
1313818174540,44.6926
1313818234540,44.7715
1313818294540,44.6929
1313818354540,44.6644
1313818414540,44.8396
1313818474540,44.8429
1313818534540,44.7355
1313818594540,44.8163
1313818654540,44.6216
1313818714540,44.6895
1313818774540,44.7035
1313818834540,44.6540
1313818894540,44.6547
1313818954540,44.7367
1313819014540,44.7870
1313819074540,44.6777
1313819134540,44.7331
1313819194540,44.7007
1313819254540,44.5631
1313819314540,44.6616
1313819374540,44.6379
1313819434540,44.5305
1313819494540,44.6792
1313819554540,44.5692
1313819614540,44.6959
1313819674540,44.6798
1313819734540,44.5508
1313819794540,44.5244
1313819854540,44.5675
1313819914540,44.5611
1313819974540,44.5190
1313820034549,44.6592
1313820094549,44.5596
1313820154549,44.4947
1313820214549,44.4181
1313820274549,44.5944
1313820334549,44.4406
1313820394549,44.5618
1313820454549,44.4292
1313820514549,44.5243
1313820574549,44.4737
1313820634549,44.4391
1313820694549,44.5828
1313820754549,44.5711
1313820814549,44.4021
1313820874549,44.4072
1313820934549,44.5068
1313820994549,44.5633
1313821054549,44.5205
1313821114549,44.4390
1313821174549,44.6391
1313821234549,44.5228
1313821294549,44.5932
1313821354549,44.4372
1313821414549,44.4368
1313821474549,44.5232
1313821534549,44.6831
1313821594549,44.5332
1313821654549,44.5729
1313821714549,44.4444
1313821774549,44.6778
1313821834549,44.6697
1313821894549,44.5693
1313821954549,44.6360
1313822014549,44.5646
1313822074549,44.6632
1313822134549,44.6408
1313822194549,44.7551
1313822254549,44.6003
1313822314549,44.7504
1313822374549,44.5943
1313822434549,44.7060
1313822494549,44.7561
1313822554549,44.6690
1313822614549,44.8165
1313822674549,44.7603
1313822734549,44.6887
1313822794549,44.6748
1313822854549,44.7047
1313822914549,44.6657
1313822974549,44.6285
1313823034549,44.7721
1313823094549,44.7508
1313823154549,44.7923
1313823214549,44.7858
1313823274549,44.8775
1313823334549,44.7833
1313823394549,44.7649
1313823454549,44.6732
1313823514549,44.8283
1313823574549,44.8741
1313823634558,44.7604
1313823694558,44.8331
1313823754558,44.8148
1313823814558,44.8200
1313823874558,44.6786
1313823934558,44.7957
1313823994558,44.7019
1313824054558,44.6533
1313824114558,44.6448
1313824174558,44.6289
1313824234558,44.6107
1313824294558,44.6698
1313824354558,44.6350
1313824414558,44.6667
1313824474558,44.6847
1313824534558,44.5251
1313824594558,44.6381
1313824654558,44.5376
1313824714558,44.5033
1313824774558,44.5207
1313824834558,44.3224
1313824894558,44.3209
1313824954558,44.4985
1313825014558,44.4487
1313825074558,44.5393
1313825134558,44.5996
1313825194558,44.5231
1313825254558,44.4258
1313825314558,44.2696
1313825374558,44.3544
1313825434558,44.4134
1313825494558,44.3499
1313825554558,44.3443
1313825614558,44.3598
1313825674558,44.5091
1313825734558,44.4343
1313825794558,44.4446
1313825854558,44.4655
1313825914558,44.4200
1313825974558,44.4127
1313826034558,44.5009
1313826094558,44.4007
1313826154558,44.4847
1313826214558,44.5043
1313826274558,44.5648
1313826334558,44.4494
1313826394558,44.4620
1313826454558,44.5197
1313826514558,44.5325
1313826574558,44.5468
1313826634558,44.4402
1313826694558,44.5190
1313826754558,44.5382
1313826814558,44.5592
1313826874558,44.5545
1313826934558,44.5187
1313826994558,44.5730
1313827054558,44.6004
1313827114558,44.6683
1313827174558,44.5656
1313827234568,44.5560
1313827294568,44.6018
1313827354568,44.7228
1313827414568,44.4988
1313827474568,44.6068
1313827534568,44.4577
1313827594568,44.5241
1313827654568,44.5545
1313827714568,44.5756
1313827774568,44.5138
1313827834568,44.4395
1313827894568,44.6384
1313827954568,44.6366
1313828014568,44.6820
1313828074568,44.6267
1313828134568,44.6832
1313828194568,44.5716
1313828254568,44.6559
1313828314568,44.5883
1313828374568,44.6552
1313828434568,44.6747
1313828494568,44.5329
1313828554568,44.5608
1313828614568,44.4475
1313828674568,44.6087
1313828734568,44.6223
1313828794568,44.5695
1313828854568,44.7675
1313828914568,44.4284
1313828974568,44.6614
1313829034568,44.5230
1313829094568,44.5604
1313829154568,44.6660
1313829214568,44.6214
1313829274568,44.5196
1313829334568,44.5506
1313829394568,44.5268
1313829454568,44.5605
1313829514568,44.5371
1313829574568,44.3562
1313829634568,44.7142
1313829694568,44.5909
1313829754568,44.7237
1313829814568,44.5779
1313829874568,44.5773
1313829934568,44.6725
1313829994568,44.6495
1313830054568,44.5853
1313830114568,44.5238
1313830174568,44.7124
1313830234568,44.5126
1313830294568,44.7087
1313830354568,44.6355
1313830414568,44.5871
1313830474568,44.6975
1313830534568,44.4706
1313830594568,44.5172
1313830654568,44.5821
1313830714568,44.4826
1313830774568,44.5384
1313830834578,44.7152
1313830894578,44.6435
1313830954578,44.5183
1313831014578,44.5395
1313831074578,44.6421
1313831134578,44.4583
1313831194578,44.6148
1313831254578,44.6228
1313831314578,44.6492
1313831374578,44.6171
1313831434578,44.4700
1313831494578,44.5502
1313831554578,44.5119
1313831614578,44.5936
1313831674578,44.6604
1313831734578,44.5177
1313831794578,44.7346
1313831854578,44.7597
1313831914578,44.6932
1313831974578,44.6551
1313832034578,44.5606
1313832094578,44.6550
1313832154578,44.7575
1313832214578,44.7604
1313832274578,44.8246
1313832334578,44.8340
1313832394578,44.8081
1313832454578,44.5712
1313832514578,44.6995
1313832574578,44.7312
1313832634578,44.6541
1313832694578,44.8147
1313832754578,44.7449
1313832814578,44.7101
1313832874578,44.7559
1313832934578,44.5430
1313832994578,44.5679
1313833054578,44.6827
1313833114578,44.5243
1313833174578,44.6758
1313833234578,44.6369
1313833294578,44.6954
1313833354578,44.7180
1313833414578,44.6089
1313833474578,44.6389
1313833534578,44.5454
1313833594578,44.6640
1313833654578,44.6641
1313833714578,44.5700
1313833774578,44.6764
1313833834578,44.6728
1313833894578,44.6290
1313833954578,44.7916
1313834014578,44.6021
1313834074578,44.6588
1313834134578,44.7429
1313834194578,44.7507
1313834254578,44.7072
1313834314578,44.7498
1313834374578,44.6461
1313834434587,44.6746
1313834494587,44.7461
1313834554587,44.7123
1313834614587,44.6950
1313834674587,44.5682
1313834734587,44.7531
1313834794587,44.6826
1313834854587,44.8553
1313834914587,44.7957
1313834974587,44.6728
1313835034587,44.6738
1313835094587,44.8050
1313835154587,44.8036
1313835214587,44.6642
1313835274587,44.6877
1313835334587,44.8428
1313835394587,44.8161
1313835454587,44.7130
1313835514587,44.8602
1313835574587,44.7414
1313835634587,44.7789
1313835694587,44.7659
1313835754587,44.5652
1313835814587,44.7284
1313835874587,44.8970
1313835934587,44.8242
1313835994587,44.7809
1313836054587,44.8155
1313836114587,44.7444
1313836174587,44.7089
1313836234587,44.8237
1313836294587,44.8905
1313836354587,44.8188
1313836414587,44.8150
1313836474587,44.8193
1313836534587,44.9414
1313836594587,44.7426
1313836654587,44.8747
1313836714587,44.8921
1313836774587,44.8487
1313836834587,44.7819
1313836894587,44.8392
1313836954587,44.8461
1313837014587,44.8580
1313837074587,44.9861
1313837134587,44.8642
1313837194587,44.9839
1313837254587,44.8925
1313837314587,44.8873
1313837374587,44.8227
1313837434587,44.9204
1313837494587,44.7516
1313837554587,44.8226
1313837614587,44.8935
1313837674587,44.8196
1313837734587,44.9013
1313837794587,44.9900
1313837854587,44.8547
1313837914587,44.9095
1313837974587,45.0114
1313838034597,44.9088
1313838094597,45.0888
1313838154597,44.8639
1313838214597,44.8844
1313838274597,44.9623
1313838334597,44.9098
1313838394597,44.8876
1313838454597,44.8168
1313838514597,44.9380
1313838574597,45.0038
1313838634597,44.9546
1313838694597,44.8305
1313838754597,44.8989
1313838814597,45.0594
1313838874597,44.9660
1313838934597,44.9476
1313838994597,45.0338
1313839054597,45.0041
1313839114597,45.0305
1313839174597,44.9913
1313839234597,44.9762
1313839294597,44.9826
1313839354597,44.8861
1313839414597,45.0836
1313839474597,44.8616
1313839534597,44.9395
1313839594597,44.9902
1313839654597,44.9321
1313839714597,45.0421
1313839774597,45.0025
1313839834597,44.9715
1313839894597,45.0177
1313839954597,45.0099
1313840014597,45.0594
1313840074597,45.1684
1313840134597,44.9753
1313840194597,45.1603
1313840254597,45.1578
1313840314597,45.0866
1313840374597,45.1162
1313840434597,45.0123
1313840494597,45.0942
1313840554597,45.2044
1313840614597,45.1394
1313840674597,45.1967
1313840734597,45.1145
1313840794597,45.2008
1313840854597,44.9959
1313840914597,44.9353
1313840974597,45.0340
1313841034597,45.0031
1313841094597,44.9782
1313841154597,44.9928
1313841214597,44.9609
1313841274597,44.9780
1313841334597,45.0056
1313841394597,44.9193
1313841454597,44.9163
1313841514597,44.9867
1313841574597,45.0420
1313841634607,44.9709
1313841694607,44.8789
1313841754607,45.0425
1313841814607,45.0691
1313841874607,44.9599
1313841934607,45.0699
1313841994607,44.9565
1313842054607,44.9353
1313842114607,44.8653
1313842174607,44.9012
1313842234607,44.9935
1313842294607,44.8602
1313842354607,45.0286
1313842414607,44.9142
1313842474607,44.9767
1313842534607,44.8197
1313842594607,44.9180
1313842654607,44.9160
1313842714607,44.9106
1313842774607,44.9344
1313842834607,44.9235
1313842894607,44.7820
1313842954607,44.8384
1313843014607,45.0020
1313843074607,44.9165
1313843134607,44.9154
1313843194607,44.9843
1313843254607,44.8503
1313843314607,44.8467
1313843374607,44.8749
1313843434607,44.8650
1313843494607,44.8859
1313843554607,44.9702
1313843614607,44.8957
1313843674607,44.8146
1313843734607,44.8280
1313843794607,44.7663
1313843854607,44.8493
1313843914607,44.7735
1313843974607,44.8207
1313844034607,44.8117
1313844094607,44.8019
1313844154607,44.8313
1313844214607,44.8178
1313844274607,44.8917
1313844334607,44.7948
1313844394607,44.8509
1313844454607,44.7593
1313844514607,44.7438
1313844574607,44.8076
1313844634607,44.8502
1313844694607,44.8968
1313844754607,44.7847
1313844814607,44.7343
1313844874607,44.9271
1313844934607,44.9562
1313844994607,44.9145
1313845054607,44.8648
1313845114607,44.9420
1313845174607,45.0593
1313845234617,44.9375
1313845294617,44.8167
1313845354617,44.9331
1313845414617,44.9411
1313845474617,44.8432
1313845534617,45.0606
1313845594617,45.0621
1313845654617,44.9495
1313845714617,45.0978
1313845774617,45.1967
1313845834617,45.3035
1313845894617,45.0912
1313845954617,45.1026
1313846014617,45.2175
1313846074617,45.0100
1313846134617,45.0165
1313846194617,45.0117
1313846254617,45.0043
1313846314617,45.1194
1313846374617,45.1323
1313846434617,45.1568
1313846494617,45.1237
1313846554617,45.0690
1313846614617,45.0037
1313846674617,45.0511
1313846734617,45.1005
1313846794617,45.1179
1313846854617,45.1001
1313846914617,45.0683
1313846974617,45.1023
1313847034617,45.0479
1313847094617,45.1760
1313847154617,45.0971
1313847214617,45.2334
1313847274617,45.0383
1313847334617,45.2065
1313847394617,45.1425
1313847454617,45.0708
1313847514617,45.0665
1313847574617,45.0687
1313847634617,45.0262
1313847694617,45.0787
1313847754617,44.9983
1313847814617,45.2573
1313847874617,45.1271
1313847934617,45.0312
1313847994617,44.9927
1313848054617,45.0390
1313848114617,45.0400
1313848174617,45.0792
1313848234617,44.9941
1313848294617,45.0287
1313848354617,45.0189
1313848414617,44.9866
1313848474617,45.0582
1313848534617,45.0130
1313848594617,44.9520
1313848654617,45.0993
1313848714617,44.9928
1313848774617,45.0802
1313848834628,45.0074
1313848894628,45.0138
1313848954628,45.1499
1313849014628,45.3729
1313849074628,45.0881
1313849134628,45.1704
1313849194628,45.1786
1313849254628,45.1168
1313849314628,45.1355
1313849374628,45.0726
1313849434628,45.1276
1313849494628,45.0411
1313849554628,45.2224
1313849614628,45.2378
1313849674628,45.1007
1313849734628,45.1292
1313849794628,45.1912
1313849854628,45.1843
1313849914628,45.2481
1313849974628,45.1605
1313850034628,45.0789
1313850094628,45.1879
1313850154628,45.1454
1313850214628,45.1231
1313850274628,45.2507
1313850334628,45.1427
1313850394628,45.0824
1313850454628,45.1979
1313850514628,45.0969
1313850574628,45.1289
1313850634628,45.0194
1313850694628,45.0545
1313850754628,45.1417
1313850814628,45.1591
1313850874628,45.1068
1313850934628,45.0582
1313850994628,45.2026
1313851054628,45.1859
1313851114628,45.2583
1313851174628,45.2158
1313851234628,45.1931
1313851294628,45.3197
1313851354628,45.1479
1313851414628,45.0484
1313851474628,45.2570
1313851534628,45.2126
1313851594628,45.2801
1313851654628,45.3240
1313851714628,45.2111
1313851774628,45.3065
1313851834628,45.1784
1313851894628,45.0840
1313851954628,45.2118
1313852014628,45.2445
1313852074628,45.3202
1313852134628,45.0504
1313852194628,45.3018
1313852254628,45.0942
1313852314628,45.1186
1313852374628,45.2543
1313852434638,45.1330
1313852494638,45.3279
1313852554638,45.1834
1313852614638,45.1713
1313852674638,45.1984
1313852734638,45.0856
1313852794638,45.1454
1313852854638,45.1653
1313852914638,45.0997
1313852974638,45.1613
1313853034638,45.1392
1313853094638,44.9926
1313853154638,45.1790
1313853214638,45.0322
1313853274638,45.1235
1313853334638,45.0940
1313853394638,45.1222
1313853454638,45.0124
1313853514638,44.9905
1313853574638,45.0853
1313853634638,45.2242
1313853694638,45.2388
1313853754638,45.0863
1313853814638,45.2281
1313853874638,45.2693
1313853934638,45.2284
1313853994638,45.1655
1313854054638,45.1407
1313854114638,45.1860
1313854174638,45.0439
1313854234638,45.1952
1313854294638,45.1882
1313854354638,45.1570
1313854414638,45.1159
1313854474638,45.2433
1313854534638,45.1252
1313854594638,45.1904
1313854654638,45.2230
1313854714638,45.2674
1313854774638,45.2686
1313854834638,45.0997
1313854894638,45.1476
1313854954638,45.2191
1313855014638,45.1923
1313855074638,45.2324
1313855134638,45.2141
1313855194638,45.3348
1313855254638,45.2344
1313855314638,45.1574
1313855374638,45.2117
1313855434638,45.1125
1313855494638,45.2969
1313855554638,45.1927
1313855614638,45.3423
1313855674638,45.2475
1313855734638,45.2266
1313855794638,45.1777
1313855854638,45.0872
1313855914638,45.2360
1313855974638,45.2633
1313856034649,45.2569
1313856094649,45.0893
1313856154649,45.1618
1313856214649,45.1874
1313856274649,45.2005
1313856334649,45.2660
1313856394649,45.2403
1313856454649,45.2354
1313856514649,45.1382
1313856574649,45.1140
1313856634649,45.1283
1313856694649,45.0333
1313856754649,45.1920
1313856814649,45.1970
1313856874649,45.0133
1313856934649,45.1926
1313856994649,45.2277
1313857054649,45.0806
1313857114649,45.3001
1313857174649,45.2812
1313857234649,45.2707
1313857294649,45.2376
1313857354649,45.3328
1313857414649,45.2678
1313857474649,45.2408
1313857534649,45.1208
1313857594649,45.3911
1313857654649,45.2538
1313857714649,45.2447
1313857774649,45.2230
1313857834649,45.2515
1313857894649,45.2611
1313857954649,45.2483
1313858014649,45.3015
1313858074649,45.2218
1313858134649,45.3053
1313858194649,45.3293
1313858254649,45.2380
1313858314649,45.2999
1313858374649,45.2944
1313858434649,45.2366
1313858494649,45.3567
1313858554649,45.3865
1313858614649,45.3858
1313858674649,45.2687
1313858734649,45.2778
1313858794649,45.3349
1313858854649,45.4756
1313858914649,45.3047
1313858974649,45.3742
1313859034649,45.2363
1313859094649,45.2512
1313859154649,45.3469
1313859214649,45.4026
1313859274649,45.4211
1313859334649,45.3689
1313859394649,45.4849
1313859454649,45.4122
1313859514649,45.2719
1313859574649,45.2977
1313859634660,45.3699
1313859694660,45.3083
1313859754660,45.4243
1313859814660,45.3329
1313859874660,45.3309
1313859934660,45.3635
1313859994660,45.3659
1313860054660,45.3575
1313860114660,45.4157
1313860174660,45.4123
1313860234660,45.4257
1313860294660,45.3318
1313860354660,45.3609
1313860414660,45.2759
1313860474660,45.3255
1313860534660,45.4134
1313860594660,45.2848
1313860654660,45.4731
1313860714660,45.3367
1313860774660,45.3142
1313860834660,45.2926
1313860894660,45.3412
1313860954660,45.1891
1313861014660,45.3087
1313861074660,45.4043
1313861134660,45.4472
1313861194660,45.3414
1313861254660,45.4756
1313861314660,45.2361
1313861374660,45.2277
1313861434660,45.3409
1313861494660,45.1938
1313861554660,45.3461
1313861614660,45.2187
1313861674660,45.1892
1313861734660,45.2809
1313861794660,45.3289
1313861854660,45.2799
1313861914660,45.3770
1313861974660,45.2247
1313862034660,45.2646
1313862094660,45.2582
1313862154660,45.2497
1313862214660,45.2229
1313862274660,45.1736
1313862334660,45.2092
1313862394660,45.2762
1313862454660,45.4254
1313862514660,45.2116
1313862574660,45.2636
1313862634660,45.1967
1313862694660,45.3215
1313862754660,45.1576
1313862814660,45.2622
1313862874660,45.1373
1313862934660,45.2130
1313862994660,45.1726
1313863054660,45.2160
1313863114660,45.1482
1313863174660,45.1981
1313863234671,45.2394
1313863294671,45.3527
1313863354671,45.3204
1313863414671,45.2973
1313863474671,45.2570
1313863534671,45.0123
1313863594671,45.3289
1313863654671,45.2978
1313863714671,45.2524
1313863774671,45.1807